Location: *
(45.8589°N, 4.7139°E)
Time: 12:40:40
(UTC+00:00)

Cosmos 1300 - Pass Details

Date: 09 April 2020
Orbit: 511 x 515 km, 82.5° (Epoch: 25 May)

Event Time Altitude Azimuth Distance (km) Brightness Sun altitude
Exits shadow 20:17:39 - 202° (SSW) 1,819 5.3 -19.4°
Reaches altitude 10° 20:17:51 10° 202° (SSW) 1,736 5.2 -19.4°
Maximum altitude 20:21:36 55° 281° (WNW) 626 3.3 -20.0°
Drops below altitude 10° 20:25:23 10° 0° (N) 1,753 5.8 -20.5°
Sets 20:27:34 0° 5° (N) 2,645 6.7 -20.8°
